Terminal Aerodrome Forecast
Issued by NWS Des Moines, IA

Home | Current Version | Previous Version | Text Only | Print | Product List | Glossary On
Versions: 1 2 3 4 5 6 7 8 9 10 11 12 13 14 15 16 17 18 19 20 21 22 23 24 25 26 27 28 29 30
000
FTUS43 KDMX 271728
TAFALO
TAF
KALO 271728Z 2718/2818 08005KT P6SM BKN080 OVC140
     FM280900 11006KT P6SM VCTS SCT025CB BKN040
     FM281300 13008KT 3SM -TSRA BR BKN018CB OVC030=

USA.gov is the U.S. government's official web portal to all federal, state and local government web resources and services.